This is the latest recevied weather packets stored in our database for station/object WE1C. If no packets are shown the sender has not sent any weather packets the latest 10 day(s).
| Time | Temp. | Humidity | Pressure | Rain* | Wind** | Luminosity | Snow |
|---|---|---|---|---|---|---|---|
| 1777889960 | 3.89° C | 72% | 1040.2 hPa | 0 mm | - | 26 W/m² | - |
| 1777889659 | 3.33° C | 75% | 1040.2 hPa | 0 mm | - | 23 W/m² | - |
| 1777889355 | 3.33° C | 76% | 1040.2 hPa | 0 mm | - | 19 W/m² | - |
| 1777889053 | 3.33° C | 76% | 1040.2 hPa | 0 mm | - | 15 W/m² | - |
| 1777888750 | 3.33° C | 76% | 1040 hPa | 0 mm | - | 12 W/m² | - |
| 1777888446 | 3.33° C | 76% | 1039.7 hPa | 0 mm | - | 8 W/m² | - |
| 1777888142 | 3.33° C | 75% | 1040.1 hPa | 0 mm | - | 6 W/m² | - |
| 1777887840 | 3.33° C | 74% | 1040.1 hPa | 0 mm | - | 4 W/m² | - |
| 1777887536 | 3.33° C | 75% | 1040 hPa | 0 mm | - | 1 W/m² | - |
| 1777887232 | 3.89° C | 74% | 1039.9 hPa | 0 mm | - | 0 W/m² | - |
| 1777886928 | 3.89° C | 73% | 1039.9 hPa | 0 mm | - | 0 W/m² | - |
| 1777886624 | 3.89° C | 72% | 1039.8 hPa | 0 mm | - | 0 W/m² | - |
| 1777886322 | 3.89° C | 71% | 1039.7 hPa | 0 mm | - | 0 W/m² | - |
| 1777886019 | 4.44° C | 71% | 1039.7 hPa | 0 mm | - | 0 W/m² | - |
| 1777885718 | 4.44° C | 71% | 1039.7 hPa | 0 mm | - | 0 W/m² | - |
| 1777885415 | 3.89° C | 71% | 1039.8 hPa | 0 mm | - | 0 W/m² | - |
| 1777885114 | 4.44° C | 70% | 1039.6 hPa | 0 mm | - | 0 W/m² | - |
| 1777884810 | 4.44° C | 70% | 1040 hPa | 0 mm | - | 0 W/m² | - |
| 1777884506 | 4.44° C | 69% | 1039.6 hPa | 0 mm | - | 0 W/m² | - |
| 1777884204 | 4.44° C | 69% | 1039.7 hPa | 0 mm | - | 0 W/m² | - |
| 1777883900 | 4.44° C | 68% | 1039.6 hPa | 0 mm | - | 0 W/m² | - |
| 1777883597 | 5° C | 67% | 1039.5 hPa | 0 mm | - | 0 W/m² | - |
| 1777883293 | 5° C | 67% | 1039.7 hPa | 0 mm | - | 0 W/m² | - |
| 1777882989 | 5° C | 67% | 1039.7 hPa | 0 mm | - | 0 W/m² | - |
| 1777882686 | 5° C | 67% | 1039.7 hPa | 0 mm | - | 0 W/m² | - |
* Rain latest hour (hover to see other rain measurements)
** Current wind speed in m/s (hover to see current wind gust speed)